DW3800 Weather Reports


Display with metric or nautical units.
time (UTC)temp
F
wind
direction
speed
MPH
gust
MPH
rain 1hr
in
rain 24hr
in
rain mn
in
humidity
%
barometer
mb
20260906030055 73 82 0.0 0.0 0.00 0.00 0.00 88 1021.5
20260906025550 73 78 0.0 0.0 0.00 0.00 0.00 87 1021.4
20260906025048 73 59 0.0 0.0 0.00 0.00 0.00 87 1021.0
20260906024544 73 60 0.0 0.0 0.00 0.00 0.00 86 1021.2
20260906024043 73 48 0.0 0.0 0.00 0.00 0.00 86 1021.0
20260906023540 73 85 0.0 1.0 0.00 0.00 0.00 86 1020.8
20260906023034 74 95 0.0 0.0 0.00 0.00 0.00 85 1020.7
20260906022530 74 123 0.0 0.0 0.00 0.00 0.00 85 1020.8
20260906022025 74 130 0.0 0.0 0.00 0.00 0.00 85 1020.7
20260906021520 74 145 0.0 0.0 0.00 0.00 0.00 85 1020.6
20260906021014 73 125 0.0 0.0 0.00 0.00 0.00 85 1020.4
20260906020514 74 121 0.0 0.0 0.00 0.00 0.00 85 1020.3
20260906020013 74 75 1.0 1.0 0.00 0.00 0.00 85 1020.0
20260906015513 74 93 0.0 0.0 0.00 0.00 0.00 84 1019.8
20260906015012 74 86 0.0 1.0 0.00 0.00 0.00 84 1019.9
20260906014507 74 62 1.0 1.0 0.00 0.00 0.00 84 1019.7
20260906014003 75 47 0.0 1.0 0.00 0.00 0.00 83 1019.6
20260906013458 75 102 0.0 1.0 0.00 0.00 0.00 83 1019.5
20260906012954 75 73 1.0 2.0 0.00 0.00 0.00 82 1019.6
20260906012449 75 139 1.0 1.0 0.00 0.00 0.00 82 1019.3
20260906011948 75 104 0.0 1.0 0.00 0.00 0.00 82 1019.4
20260906011444 76 111 1.0 1.0 0.00 0.00 0.00 81 1019.5
20260906010939 76 113 0.0 3.0 0.00 0.00 0.00 80 1019.4
20260906010434 76 123 0.0 1.0 0.00 0.00 0.00 80 1019.3
20260906005930 77 100 1.0 3.0 0.00 0.00 0.00 80 1019.3
20260906005430 77 111 0.0 5.0 0.00 0.00 0.00 79 1018.9
20260906004928 77 89 2.0 3.0 0.00 0.00 0.00 79 1018.8
20260906004422 77 95 1.0 2.0 0.00 0.00 0.00 79 1018.4
20260906003919 78 111 1.0 5.0 0.00 0.00 0.00 78 1018.5
20260906003414 78 95 1.0 6.0 0.00 0.00 0.00 78 1018.5
20260906002909 79 113 3.0 6.0 0.00 0.00 0.00 77 1018.9
20260906002409 79 91 0.0 2.0 0.00 0.00 0.00 75 1018.9
20260906001904 80 82 1.0 1.0 0.00 0.00 0.00 74 1018.9
20260906001400 80 108 0.0 7.0 0.00 0.00 0.00 74 1019.0
20260906000900 80 39 2.0 7.0 0.00 0.00 0.00 73 1018.8
20260906000400 80 18 1.0 7.0 0.00 0.00 0.00 73 1019.0
20260905235855 81 92 1.0 3.0 0.00 0.00 0.00 72 1018.6
20260905235349 81 74 1.0 2.0 0.00 0.00 0.00 72 1018.6
20260905234845 81 79 0.0 7.0 0.00 0.00 0.00 71 1018.4
20260905234340 81 43 3.0 8.0 0.00 0.00 0.00 71 1018.5
20260905233835 81 84 0.0 3.0 0.00 0.00 0.00 71 1018.3
20260905233330 82 354 1.0 7.0 0.00 0.00 0.00 70 1018.2
20260905232829 82 288 2.0 5.0 0.00 0.00 0.00 70 1018.2
20260905232325 82 195 2.0 6.0 0.00 0.00 0.00 70 1018.1
20260905231821 83 77 0.0 7.0 0.00 0.00 0.00 68 1018.2
20260905231316 83 140 2.0 7.0 0.00 0.00 0.00 67 1017.8
20260905230812 83 15 3.0 5.0 0.00 0.00 0.00 66 1017.9
20260905230310 83 95 0.0 6.0 0.00 0.00 0.00 65 1018.1
20260905225809 84 27 4.0 7.0 0.00 0.00 0.00 65 1018.1
20260905225306 84 112 2.0 5.0 0.00 0.00 0.00 65 1018.3
20260905224804 84 45 2.0 10.0 0.00 0.00 0.00 66 1018.3
20260905224300 84 202 1.0 3.0 0.00 0.00 0.00 66 1018.3
20260905223755 84 256 3.0 3.0 0.00 0.00 0.00 65 1018.2
20260905223252 84 223 2.0 6.0 0.00 0.00 0.00 65 1018.2
20260905222747 84 173 3.0 5.0 0.00 0.00 0.00 65 1018.3
20260905222246 85 125 1.0 3.0 0.00 0.00 0.00 65 1018.2
20260905221742 84 188 0.0 7.0 0.00 0.00 0.00 65 1018.1
20260905221239 85 203 3.0 6.0 0.00 0.00 0.00 64 1018.0
20260905220735 85 119 1.0 3.0 0.00 0.00 0.00 65 1018.1
20260905220231 85 258 1.0 5.0 0.00 0.00 0.00 65 1017.8
20260905215730 85 353 3.0 8.0 0.00 0.00 0.00 65 1017.8
20260905215226 85 8 4.0 7.0 0.00 0.00 0.00 66 1018.0
20260905214721 85 23 3.0 9.0 0.00 0.00 0.00 66 1018.1
20260905214217 86 41 1.0 5.0 0.00 0.00 0.00 65 1018.1
20260905213712 86 128 0.0 7.0 0.00 0.00 0.00 65 1018.2
20260905213208 85 35 3.0 8.0 0.00 0.00 0.00 65 1018.2
20260905212703 85 100 2.0 7.0 0.00 0.00 0.00 66 1018.2
20260905212202 85 126 3.0 5.0 0.00 0.00 0.00 64 1018.3
20260905211657 85 125 2.0 10.0 0.00 0.00 0.00 65 1018.2
20260905211152 85 156 1.0 6.0 0.00 0.00 0.00 66 1018.5
20260905210649 84 198 1.0 6.0 0.00 0.00 0.00 67 1018.5
20260905210149 84 310 2.0 3.0 0.00 0.00 0.00 67 1019.2
20260905205648 84 351 2.0 3.0 0.00 0.00 0.00 69 1019.0
20260905205147 83 215 0.0 5.0 0.00 0.00 0.00 71 1019.3
20260905204647 83 230 1.0 2.0 0.00 0.00 0.00 68 1019.6
20260905204142 83 203 1.0 6.0 0.00 0.00 0.00 70 1019.5
20260905203637 84 306 1.0 3.0 0.00 0.00 0.00 70 1019.4
20260905203132 83 231 1.0 3.0 0.00 0.00 0.00 69 1019.7
20260905202628 83 27 0.0 2.0 0.00 0.00 0.00 70 1019.5
20260905202123 83 170 0.0 2.0 0.00 0.00 0.00 70 1019.7
20260905201618 83 327 4.0 6.0 0.00 0.00 0.00 71 1019.8
20260905201118 84 314 1.0 5.0 0.00 0.00 0.00 71 1019.9
20260905200614 84 201 0.0 1.0 0.00 0.00 0.00 70 1019.8
20260905200109 83 189 0.0 1.0 0.00 0.00 0.00 70 1019.9
20260905195601 83 133 1.0 3.0 0.00 0.00 0.00 70 1019.9
20260905195057 83 65 2.0 3.0 0.00 0.00 0.00 70 1020.0
20260905194557 83 157 1.0 3.0 0.00 0.00 0.00 71 1020.3
20260905194056 83 157 0.0 1.0 0.00 0.00 0.00 71 1020.1
20260905193551 83 14 3.0 3.0 0.00 0.00 0.00 70 1020.1
20260905193046 83 184 0.0 1.0 0.00 0.00 0.00 71 1020.3
20260905192542 82 185 1.0 3.0 0.00 0.00 0.00 71 1020.2
20260905192038 82 321 2.0 3.0 0.00 0.00 0.00 71 1020.3
20260905191536 83 187 1.0 2.0 0.00 0.00 0.00 71 1020.2
20260905191036 82 78 1.0 2.0 0.00 0.00 0.00 73 1020.3
20260905190533 83 132 2.0 3.0 0.00 0.00 0.00 73 1020.4
20260905190028 82 127 1.0 3.0 0.00 0.00 0.00 73 1020.3
20260905185527 81 181 0.0 1.0 0.00 0.00 0.00 73 1020.3
20260905185026 81 7 2.0 5.0 0.00 0.00 0.00 75 1020.3
20260905184521 81 102 1.0 5.0 0.00 0.00 0.00 75 1020.1
20260905184019 81 18 3.0 3.0 0.00 0.00 0.00 74 1020.3
20260905183514 81 159 1.0 2.0 0.00 0.00 0.00 75 1020.0
20260905183009 82 154 1.0 2.0 0.00 0.00 0.00 75 1020.4
20260905182509 80 147 0.0 5.0 0.00 0.00 0.00 77 1020.2
20260905182003 80 123 0.0 3.0 0.00 0.00 0.00 77 1020.2
20260905181458 79 64 1.0 3.0 0.00 0.00 0.00 78 1020.4
20260905180957 79 31 4.0 6.0 0.00 0.00 0.00 79 1020.5
20260905180452 80 136 0.0 3.0 0.00 0.00 0.00 78 1020.5
20260905175947 79 129 0.0 2.0 0.00 0.00 0.00 79 1020.5
20260905175447 79 131 2.0 3.0 0.00 0.00 0.00 79 1020.7
20260905174943 79 7 1.0 6.0 0.00 0.00 0.00 80 1020.6
20260905174437 80 221 1.0 1.0 0.00 0.00 0.00 79 1020.7
20260905173933 79 137 0.0 3.0 0.00 0.00 0.00 80 1020.9
20260905173430 78 9 2.0 2.0 0.00 0.00 0.00 80 1021.0
20260905172925 78 80 2.0 3.0 0.00 0.00 0.00 81 1021.2
20260905172422 77 74 1.0 5.0 0.00 0.00 0.00 83 1021.2
20260905171918 78 112 1.0 3.0 0.00 0.00 0.00 82 1021.1
20260905171410 77 132 1.0 2.0 0.00 0.00 0.00 84 1020.9
20260905170905 76 163 0.0 3.0 0.00 0.00 0.00 84 1021.3
20260905170401 76 91 1.0 3.0 0.00 0.00 0.00 85 1020.9
20260905165901 75 357 2.0 3.0 0.00 0.00 0.00 86 1021.1
20260905165355 75 357 1.0 2.0 0.00 0.00 0.00 86 1021.0
20260905164850 75 135 3.0 6.0 0.00 0.00 0.00 86 1021.1
20260905164345 75 56 1.0 1.0 0.00 0.00 0.00 87 1021.3
20260905163840 74 133 1.0 1.0 0.00 0.00 0.00 89 1021.4
20260905163336 73 332 1.0 1.0 0.00 0.00 0.00 90 1021.3
20260905162832 73 232 1.0 1.0 0.00 0.00 0.00 90 1021.2
20260905162326 73 247 1.0 1.0 0.00 0.00 0.00 91 1021.3
20260905161821 73 79 1.0 3.0 0.00 0.00 0.00 90 1021.5
20260905161321 73 272 0.0 1.0 0.00 0.00 0.00 91 1021.3
20260905160819 72 141 0.0 2.0 0.00 0.00 0.00 92 1021.3
20260905160314 72 52 2.0 3.0 0.00 0.00 0.00 92 1021.4
20260905155808 73 134 1.0 2.0 0.00 0.00 0.00 92 1021.2
20260905155307 73 72 3.0 3.0 0.00 0.00 0.00 91 1020.8
20260905154801 73 324 2.0 3.0 0.00 0.00 0.00 91 1020.9
20260905154257 72 24 1.0 5.0 0.00 0.00 0.00 93 1020.6
20260905153752 71 230 1.0 1.0 0.00 0.00 0.00 95 1020.8
20260905153248 71 15 1.0 3.0 0.00 0.00 0.00 96 1020.9
20260905152743 70 198 0.0 5.0 0.00 0.00 0.00 97 1020.8
20260905152237 70 10 0.0 1.0 0.00 0.00 0.00 97 1020.9
20260905151736 70 101 0.0 2.0 0.00 0.00 0.00 98 1020.8
20260905151233 70 249 0.0 2.0 0.00 0.00 0.00 99 1020.6
20260905150732 69 291 0.0 2.0 0.00 0.00 0.00 99 1020.7
20260905150232 69 19 1.0 3.0 0.00 0.00 0.00 99 1020.7
20260905145729 69 288 0.0 0.0 0.00 0.00 0.00 99 1020.8
20260905145224 69 357 2.0 5.0 0.00 0.00 0.00 99 1020.9
20260905144723 69 307 0.0 2.0 0.00 0.00 0.00 99 1020.7
20260905144218 69 235 0.0 0.0 0.00 0.00 0.00 99 1020.8
20260905143717 68 49 0.0 2.0 0.00 0.00 0.00 99 1020.6
20260905143217 69 323 1.0 1.0 0.00 0.00 0.00 99 1020.8
20260905142716 68 68 0.0 0.0 0.00 0.00 0.00 99 1020.8
20260905142210 68 343 0.0 1.0 0.00 0.00 0.00 99 1020.7
20260905141706 68 17 0.0 2.0 0.00 0.00 0.00 99 1020.9
20260905141202 68 247 0.0 0.0 0.00 0.00 0.00 99 1020.8
20260905140657 68 175 0.0 0.0 0.00 0.00 0.00 99 1020.7
20260905140151 68 107 0.0 1.0 0.00 0.00 0.00 99 1020.9
20260905135646 68 323 1.0 3.0 0.00 0.00 0.00 99 1020.6
20260905135142 68 271 0.0 1.0 0.00 0.00 0.00 99 1020.4
20260905134636 68 324 0.0 2.0 0.00 0.00 0.00 99 1020.7
20260905134134 68 53 1.0 1.0 0.00 0.00 0.00 99 1020.6
20260905133630 68 67 0.0 1.0 0.00 0.00 0.00 99 1020.6
20260905133125 68 339 0.0 1.0 0.00 0.00 0.00 99 1020.5
20260905132624 68 122 0.0 1.0 0.00 0.00 0.00 99 1020.3
20260905132119 68 15 1.0 2.0 0.00 0.00 0.00 99 1020.2
20260905131614 68 288 0.0 1.0 0.00 0.00 0.00 99 1019.9
20260905131104 68 64 0.0 3.0 0.00 0.00 0.00 99 1019.8
20260905130603 68 162 0.0 0.0 0.00 0.00 0.00 99 1019.6
20260905130058 68 105 0.0 7.0 0.00 0.00 0.00 99 1019.4
20260905125557 68 336 1.0 3.0 0.00 0.00 0.00 99 1019.3
20260905125053 68 129 0.0 3.0 0.00 0.00 0.00 99 1019.2
20260905124550 67 314 3.0 3.0 0.00 0.00 0.00 99 1019.2
20260905124045 67 334 3.0 5.0 0.00 0.00 0.00 99 1019.1
20260905123540 67 306 2.0 3.0 0.00 0.00 0.00 99 1019.2
20260905123038 67 297 0.0 3.0 0.00 0.00 0.00 99 1019.2
20260905122537 67 92 1.0 5.0 0.00 0.00 0.00 99 1019.5
20260905122032 67 308 2.0 5.0 0.00 0.00 0.00 99 1019.3
20260905121531 67 50 1.0 3.0 0.00 0.00 0.00 99 1019.5
20260905121027 67 211 1.0 2.0 0.00 0.00 0.00 99 1019.4
20260905120520 67 87 0.0 2.0 0.00 0.00 0.00 99 1019.3
20260905120016 67 92 0.0 0.0 0.00 0.00 0.00 99 1019.4
20260905115515 67 334 0.0 3.0 0.00 0.00 0.00 99 1019.2
20260905115010 67 20 2.0 3.0 0.00 0.00 0.00 99 1019.0
20260905114509 67 70 0.0 1.0 0.00 0.00 0.00 99 1019.0
20260905114008 67 332 0.0 2.0 0.00 0.00 0.00 99 1019.0
20260905113504 67 302 3.0 3.0 0.00 0.00 0.00 99 1018.9
20260905112959 67 39 1.0 2.0 0.00 0.00 0.00 99 1019.2
20260905112454 67 331 1.0 2.0 0.00 0.00 0.00 99 1019.1
20260905111949 67 310 0.0 2.0 0.00 0.00 0.00 99 1019.0
20260905111444 67 323 2.0 3.0 0.00 0.00 0.00 99 1019.1
20260905110943 67 300 1.0 2.0 0.00 0.00 0.00 99 1018.8
20260905110443 67 281 1.0 2.0 0.00 0.00 0.00 99 1018.6
20260905105937 67 336 1.0 2.0 0.00 0.00 0.00 99 1018.6
20260905105432 67 24 0.0 2.0 0.00 0.00 0.00 99 1018.9
20260905104931 67 280 1.0 2.0 0.00 0.00 0.00 99 1018.6
20260905104427 67 330 0.0 1.0 0.00 0.00 0.00 99 1018.4
20260905103922 67 18 0.0 0.0 0.00 0.00 0.00 99 1018.6
20260905103417 67 15 0.0 0.0 0.00 0.00 0.00 99 1018.5
20260905102913 67 347 0.0 0.0 0.00 0.00 0.00 99 1018.5
20260905102409 67 11 0.0 0.0 0.00 0.00 0.00 99 1018.9
20260905101904 67 292 0.0 0.0 0.00 0.00 0.00 99 1018.9
20260905101402 67 148 0.0 0.0 0.00 0.00 0.00 99 1018.8
20260905100857 66 281 0.0 0.0 0.00 0.00 0.00 99 1018.4
20260905100353 66 280 0.0 0.0 0.00 0.00 0.00 99 1018.3
20260905095852 66 12 1.0 2.0 0.00 0.00 0.00 99 1018.1
20260905095347 66 306 0.0 0.0 0.00 0.00 0.00 99 1018.0
20260905094841 66 331 0.0 2.0 0.00 0.00 0.00 99 1017.9
20260905094337 66 333 0.0 2.0 0.00 0.00 0.00 99 1018.0
20260905093836 66 348 1.0 7.0 0.00 0.00 0.00 99 1017.9
20260905093332 66 18 0.0 3.0 0.00 0.00 0.00 99 1018.0
20260905092828 66 24 0.0 5.0 0.00 0.00 0.00 99 1018.0
20260905092327 66 347 0.0 5.0 0.00 0.00 0.00 99 1018.1
20260905091822 66 101 0.0 6.0 0.00 0.00 0.00 99 1018.3
20260905091322 66 22 0.0 3.0 0.00 0.00 0.00 99 1018.3
20260905090820 66 21 0.0 3.0 0.00 0.00 0.00 99 1018.3
20260905090317 66 342 3.0 7.0 0.00 0.00 0.00 99 1018.6
20260905085811 66 280 2.0 5.0 0.00 0.00 0.00 99 1018.4
20260905085310 66 43 0.0 6.0 0.00 0.00 0.00 99 1018.3
20260905084806 66 16 0.0 5.0 0.00 0.00 0.00 99 1018.3
20260905084305 66 39 1.0 5.0 0.00 0.00 0.00 99 1018.5
20260905083801 66 343 2.0 8.0 0.00 0.00 0.00 99 1018.4
20260905083256 66 13 0.0 1.0 0.00 0.00 0.00 99 1018.5
20260905082752 66 291 3.0 7.0 0.00 0.00 0.00 99 1018.8
20260905082248 66 63 1.0 3.0 0.00 0.00 0.00 99 1018.5
20260905081747 66 352 0.0 1.0 0.00 0.00 0.00 99 1018.6
20260905081243 66 94 0.0 6.0 0.00 0.00 0.00 99 1018.9
20260905080737 66 2 1.0 2.0 0.00 0.00 0.00 99 1018.8
20260905080237 66 40 0.0 1.0 0.00 0.00 0.00 99 1018.6
20260905075736 66 341 0.0 1.0 0.00 0.00 0.00 99 1018.6
20260905075235 66 8 0.0 2.0 0.00 0.00 0.00 99 1018.6
20260905074734 66 66 0.0 7.0 0.00 0.00 0.00 99 1018.8
20260905074230 66 37 1.0 3.0 0.00 0.00 0.00 99 1018.6
20260905073725 66 310 1.0 5.0 0.00 0.00 0.00 99 1018.8
20260905073221 66 308 0.0 1.0 0.00 0.00 0.00 99 1018.6
20260905072720 66 322 0.0 9.0 0.00 0.00 0.00 99 1019.0
20260905072216 66 330 0.0 3.0 0.00 0.00 0.00 99 1018.9
20260905071712 66 359 0.0 1.0 0.00 0.00 0.00 99 1018.8
20260905071208 66 13 3.0 6.0 0.00 0.00 0.00 99 1018.8
20260905070703 66 6 2.0 5.0 0.00 0.00 0.00 99 1018.4
20260905070159 66 36 1.0 6.0 0.00 0.00 0.00 99 1018.6
20260905065657 66 121 1.0 2.0 0.00 0.00 0.00 98 1018.9
20260905065151 66 2 2.0 5.0 0.00 0.00 0.00 98 1019.0
20260905064647 66 146 0.0 5.0 0.00 0.00 0.00 98 1019.0
20260905064143 66 223 0.0 7.0 0.00 0.00 0.00 98 1018.8
20260905063640 66 34 3.0 5.0 0.00 0.00 0.00 98 1018.9
20260905063138 66 302 3.0 5.0 0.00 0.00 0.00 98 1018.8
20260905062633 66 8 2.0 2.0 0.00 0.00 0.00 97 1018.8
20260905062132 66 315 1.0 5.0 0.00 0.00 0.00 97 1018.8
20260905061627 66 347 1.0 2.0 0.00 0.00 0.00 97 1018.6
20260905061126 67 68 0.0 0.0 0.00 0.00 0.00 97 1018.6
20260905060622 67 340 0.0 3.0 0.00 0.00 0.00 97 1018.4
20260905060119 67 339 0.0 1.0 0.00 0.00 0.00 97 1018.5
20260905055617 67 92 1.0 5.0 0.00 0.00 0.00 96 1018.5
20260905055112 67 354 0.0 7.0 0.00 0.00 0.00 96 1018.4
20260905054608 67 354 0.0 2.0 0.00 0.00 0.00 96 1018.3
20260905054103 67 293 0.0 2.0 0.00 0.00 0.00 96 1018.1
20260905053603 67 314 2.0 3.0 0.00 0.00 0.00 96 1018.3
20260905053058 68 12 0.0 6.0 0.00 0.00 0.00 95 1018.2
20260905052557 68 336 3.0 3.0 0.00 0.00 0.00 95 1018.2
20260905052052 68 218 0.0 5.0 0.00 0.00 0.00 95 1018.0
20260905051548 68 349 0.0 1.0 0.00 0.00 0.00 95 1017.9
20260905051044 68 278 1.0 6.0 0.00 0.00 0.00 95 1017.8
20260905050540 68 303 2.0 8.0 0.00 0.00 0.00 94 1018.2
20260905050037 68 331 0.0 1.0 0.00 0.00 0.00 94 1018.2
20260905045531 68 357 0.0 5.0 0.00 0.00 0.00 94 1018.0
20260905045027 68 331 0.0 2.0 0.00 0.00 0.00 94 1018.2
20260905044526 69 354 2.0 5.0 0.00 0.00 0.00 93 1018.1
20260905044021 69 355 1.0 6.0 0.00 0.00 0.00 93 1017.9
20260905043520 69 26 1.0 7.0 0.00 0.00 0.00 93 1018.1
20260905043016 69 359 0.0 3.0 0.00 0.00 0.00 93 1018.1
20260905042514 69 357 1.0 6.0 0.00 0.00 0.00 92 1018.2
20260905042010 69 357 3.0 5.0 0.00 0.00 0.00 92 1018.0
20260905041505 69 342 1.0 3.0 0.00 0.00 0.00 92 1017.9
20260905041001 70 50 0.0 5.0 0.00 0.00 0.00 92 1018.2
20260905040500 70 2 1.0 2.0 0.00 0.00 0.00 91 1018.2
20260905035959 70 344 1.0 2.0 0.00 0.00 0.00 91 1018.2
20260905035454 70 22 1.0 2.0 0.00 0.00 0.00 91 1018.2
20260905034952 70 356 1.0 3.0 0.00 0.00 0.00 90 1018.1
20260905034447 71 328 5.0 7.0 0.00 0.00 0.00 90 1018.1
20260905033945 71 1 3.0 7.0 0.00 0.00 0.00 90 1018.2
20260905033445 71 327 2.0 5.0 0.00 0.00 0.00 89 1018.1
20260905032940 71 262 1.0 7.0 0.00 0.00 0.00 89 1018.0
20260905032436 71 89 0.0 6.0 0.00 0.00 0.00 89 1018.0
20260905031930 71 330 1.0 2.0 0.00 0.00 0.00 88 1018.0
20260905031426 71 59 1.0 5.0 0.00 0.00 0.00 88 1018.0
20260905030921 72 280 2.0 3.0 0.00 0.00 0.00 88 1018.1
20260905030417 72 36 1.0 3.0 0.00 0.00 0.00 87 1018.1